Location: Poughquag
(41.6090°N, 73.6820°W)
Time: 12:25:26
(UTC-04:00)

Tiros 1 despin weight - Pass Details

Date: 07 June 2020
Orbit: 593 x 642 km, 48.2° (Epoch: 07 July)

Event Time Altitude Azimuth Distance (km) Brightness Sun altitude
Rises 12:59:48 0° 297° (WNW) 2,917 ? 71.2°
Reaches altitude 10° 13:02:10 10° 301° (WNW) 2,000 ? 71.2°
Maximum altitude 13:06:43 61° 21° (NNE) 706 ? 71.0°
Drops below altitude 10° 13:11:12 10° 103° (ESE) 1,963 ? 70.9°
Sets 13:13:30 0° 107° (ESE) 2,857 ? 70.8°
